Weather History for Glenwood, MN

Change the Weather History Date:

Thursday, October 4, 2012

  Actual Average Record
Temperature  
Mean Temperature 48 °F -  
Max Temperature 60 °F 62 °F 82 °F (1987)
Min Temperature 35 °F 39 °F 24 °F (1989)
Degree Days  
Heating Degree Days 18    
Moisture  
Dew Point 33 °F    
Average Humidity 73    
Maximum Humidity 93    
Minimum Humidity 36    
Precipitation  
Precipitation 0.00 in - - ()
Sea Level Pressure  
Sea Level Pressure 29.97 in    
Wind  
Wind Speed 22 mph (West)    
Max Wind Speed 36 mph    
Max Gust Speed 47 mph    
Visibility 9 miles    
Events Rain    
Averages and records for this station are not official NWS values.
T = Trace of Precipitation, MM = Missing Value Source: NWS Daily Summary

Daily Weather History Graph

Daily Weather History Graph

Search for Another Location

Airport:

Trip Planner

Search our weather history database for the weather conditions in past years. The results will help you decide how hot, cold, wet, or windy it might be!

Date:

Astronomy

Oct. 04, 2012 Rise Set
Actual Time 7:24 AM CDT 6:54 PM CDT
Civil Twilight 6:54 AM CDT 7:24 PM CDT
Nautical Twilight 6:19 AM CDT 7:58 PM CDT
Astronomical Twilight 5:45 AM CDT 8:33 PM CDT
Moon 9:17 PM CDT (10/4) 11:55 AM CDT (10/4)
Length of Visible Light 12h 29m
Length of Day
11h 30m
Waning Gibbous, 82% of the Moon is Illuminated
Oct 4
Waning Gibbous
Oct 8
Last Quarter
Oct 15
New
Oct 21
First Quarter
Oct 29
Full

Hourly Weather History & Observations

Time (CDT) Temp. Windchill Dew Point Humidity Pressure Visibility Wind Dir Wind Speed Gust Speed Precip Events Conditions
12:14 AM 59.0 °F - 37.4 °F 45% 29.72 in 10.0 mi East 11.5 mph - N/A   Clear
12:33 AM 59.0 °F - 37.4 °F 45% 29.71 in 10.0 mi ESE 10.4 mph - N/A   Clear
12:53 AM 57.2 °F - 37.4 °F 48% 29.70 in 10.0 mi ESE 8.1 mph - N/A   Clear
1:14 AM 57.2 °F - 37.4 °F 48% 29.69 in 10.0 mi ESE 6.9 mph - N/A   Clear
1:33 AM 57.2 °F - 37.4 °F 48% 29.69 in 10.0 mi SE 9.2 mph - N/A   Clear
1:53 AM 60.8 °F - 33.8 °F 36% 29.68 in 10.0 mi South 16.1 mph 20.7 mph N/A   Clear
2:14 AM 59.0 °F - 35.6 °F 42% 29.67 in 10.0 mi South 12.7 mph - N/A   Clear
2:33 AM 55.4 °F - 35.6 °F 47% 29.67 in 10.0 mi South 13.8 mph - N/A   Clear
2:53 AM 51.8 °F - 39.2 °F 62% 29.68 in 10.0 mi WSW 21.9 mph 25.3 mph N/A   Clear
3:14 AM 46.4 °F 38.1 °F 42.8 °F 87% 29.69 in 10.0 mi WSW 24.2 mph 28.8 mph N/A   Clear
3:33 AM 44.6 °F 34.9 °F 41.0 °F 87% 29.69 in 10.0 mi West 28.8 mph 33.4 mph N/A   Clear
3:53 AM 44.6 °F 34.2 °F 41.0 °F 87% 29.72 in 10.0 mi WSW 33.4 mph 40.3 mph N/A   Mostly Cloudy
4:14 AM 44.6 °F 34.1 °F 39.2 °F 81% 29.72 in 5.0 mi West 34.5 mph 47.2 mph N/A   Haze
4:33 AM 44.6 °F 34.4 °F 39.2 °F 81% 29.74 in 7.0 mi West 32.2 mph 40.3 mph N/A   Overcast
4:53 AM 42.8 °F 32.3 °F 39.2 °F 87% 29.77 in 10.0 mi West 29.9 mph 38.0 mph N/A   Overcast
5:14 AM 42.8 °F 31.6 °F 39.2 °F 87% 29.78 in 7.0 mi West 34.5 mph 42.6 mph N/A   Overcast
5:33 AM 41.0 °F 29.7 °F 39.2 °F 93% 29.79 in 5.0 mi West 31.1 mph 42.6 mph N/A   Overcast
5:53 AM 39.2 °F 27.8 °F 37.4 °F 93% 29.81 in 5.0 mi West 27.6 mph 40.3 mph N/A   Light Drizzle
6:13 AM 37.4 °F 25.0 °F 35.6 °F 93% 29.82 in 5.0 mi West 29.9 mph 41.4 mph N/A   Overcast
6:33 AM 35.6 °F 22.5 °F 33.8 °F 93% 29.83 in 7.0 mi West 29.9 mph 38.0 mph N/A   Overcast
6:54 AM 35.6 °F 23.0 °F 33.8 °F 93% 29.85 in 10.0 mi West 27.6 mph 38.0 mph N/A   Overcast
7:13 AM 35.6 °F 23.2 °F 33.8 °F 93% 29.86 in 10.0 mi West 26.5 mph 35.7 mph N/A   Overcast
7:39 AM 35.6 °F 23.4 °F 33.8 °F 93% 29.87 in 10.0 mi West 25.3 mph 33.4 mph N/A   Overcast
7:54 AM 35.6 °F 24.5 °F 33.8 °F 93% 29.89 in 10.0 mi West 20.7 mph 34.5 mph N/A   Overcast
8:13 AM 35.6 °F 23.7 °F 33.8 °F 93% 29.90 in 10.0 mi West 24.2 mph 35.7 mph N/A   Overcast
8:33 AM 35.6 °F 23.4 °F 32.0 °F 87% 29.92 in 5.0 mi West 25.3 mph 36.8 mph N/A   Overcast
8:54 AM 35.6 °F 22.7 °F 33.8 °F 93% 29.92 in 2.0 mi West 28.8 mph 35.7 mph N/A Rain Light Rain
9:13 AM 35.6 °F 22.5 °F 33.8 °F 93% 29.93 in 5.0 mi West 29.9 mph 38.0 mph N/A   Overcast
9:34 AM 35.6 °F 23.0 °F 33.8 °F 93% 29.95 in 5.0 mi West 27.6 mph 40.3 mph N/A   Overcast
9:53 AM 35.6 °F 22.3 °F 33.8 °F 93% 29.96 in 7.0 mi West 31.1 mph 40.3 mph N/A   Overcast
10:13 AM 37.4 °F 24.8 °F 32.0 °F 81% 29.97 in 10.0 mi WNW 31.1 mph 41.4 mph N/A   Overcast
10:34 AM 37.4 °F 24.4 °F 32.0 °F 81% 29.98 in 10.0 mi WNW 33.4 mph 39.1 mph N/A   Overcast
10:53 AM 39.2 °F 27.4 °F 32.0 °F 75% 29.99 in 10.0 mi West 29.9 mph 40.3 mph N/A   Overcast
11:34 AM 39.2 °F 27.4 °F 32.0 °F 75% 30.01 in 10.0 mi West 29.9 mph 41.4 mph N/A   Overcast
11:53 AM 39.2 °F 27.0 °F 32.0 °F 75% 30.02 in 7.0 mi West 32.2 mph 41.4 mph N/A   Overcast
12:13 PM 39.2 °F 27.6 °F 33.8 °F 81% 30.03 in 5.0 mi West 28.8 mph 38.0 mph N/A   Haze
12:34 PM 41.0 °F 29.8 °F 33.8 °F 76% 30.04 in 10.0 mi WNW 29.9 mph 42.6 mph N/A   Overcast
12:53 PM 39.2 °F 28.7 °F 33.8 °F 81% 30.05 in 7.0 mi West 23.0 mph 38.0 mph N/A   Overcast
1:13 PM 39.2 °F 27.0 °F 32.0 °F 75% 30.06 in 10.0 mi WNW 32.2 mph 42.6 mph N/A   Overcast
1:34 PM 41.0 °F 30.2 °F 30.2 °F 65% 30.07 in 10.0 mi West 27.6 mph 43.7 mph N/A   Overcast
1:53 PM 41.0 °F 29.5 °F 30.2 °F 65% 30.06 in 10.0 mi West 32.2 mph 39.1 mph N/A   Overcast
2:13 PM 41.0 °F 29.5 °F 32.0 °F 70% 30.06 in 10.0 mi West 32.2 mph 39.1 mph N/A   Overcast
2:34 PM 42.8 °F 31.9 °F 30.2 °F 61% 30.08 in 10.0 mi West 32.2 mph 42.6 mph N/A   Overcast
2:53 PM 42.8 °F 31.9 °F 30.2 °F 61% 30.08 in 10.0 mi West 32.2 mph 40.3 mph N/A   Overcast
3:13 PM 41.0 °F 30.9 °F 30.2 °F 65% 30.09 in 10.0 mi West 24.2 mph 38.0 mph N/A   Overcast
3:34 PM 42.8 °F 32.9 °F 30.2 °F 61% 30.10 in 10.0 mi WNW 26.5 mph 36.8 mph N/A   Overcast
3:53 PM 42.8 °F 32.7 °F 30.2 °F 61% 30.10 in 10.0 mi West 27.6 mph 40.3 mph N/A   Overcast
4:13 PM 42.8 °F 33.1 °F 30.2 °F 61% 30.10 in 10.0 mi WNW 25.3 mph 36.8 mph N/A   Overcast
4:34 PM 42.8 °F 31.8 °F 30.2 °F 61% 30.10 in 10.0 mi WNW 33.4 mph 41.4 mph N/A   Overcast
4:53 PM 42.8 °F 31.4 °F 28.4 °F 57% 30.11 in 10.0 mi WNW 35.7 mph 46.0 mph N/A   Overcast
5:13 PM 42.8 °F 32.9 °F 30.2 °F 61% 30.12 in 10.0 mi WNW 26.5 mph 34.5 mph N/A   Overcast
5:34 PM 41.0 °F 29.8 °F 30.2 °F 65% 30.12 in 10.0 mi WNW 29.9 mph 34.5 mph N/A   Overcast
5:53 PM 41.0 °F 30.5 °F 30.2 °F 65% 30.13 in 10.0 mi WNW 26.5 mph 33.4 mph N/A   Overcast
6:13 PM 41.0 °F 30.5 °F 30.2 °F 65% 30.13 in 10.0 mi WNW 26.5 mph 32.2 mph N/A   Overcast
6:34 PM 41.0 °F 30.9 °F 30.2 °F 65% 30.13 in 10.0 mi WNW 24.2 mph 34.5 mph N/A   Overcast
6:53 PM 41.0 °F 30.5 °F 30.2 °F 65% 30.13 in 10.0 mi WNW 26.5 mph 32.2 mph N/A   Overcast
7:13 PM 39.2 °F 29.8 °F 30.2 °F 70% 30.14 in 10.0 mi West 18.4 mph 31.1 mph N/A   Scattered Clouds
7:34 PM 39.2 °F 28.3 °F 30.2 °F 70% 30.14 in 10.0 mi WNW 25.3 mph 34.5 mph N/A   Mostly Cloudy
8:14 PM 39.2 °F 29.6 °F 32.0 °F 75% 30.14 in 10.0 mi West 19.6 mph 31.1 mph N/A   Scattered Clouds
8:33 PM 39.2 °F 29.3 °F 32.0 °F 75% 30.14 in 10.0 mi WNW 20.7 mph 29.9 mph N/A   Scattered Clouds
8:53 PM 39.2 °F 28.7 °F 32.0 °F 75% 30.15 in 10.0 mi WNW 23.0 mph 31.1 mph N/A   Scattered Clouds
9:14 PM 39.2 °F 28.0 °F 30.2 °F 70% 30.15 in 10.0 mi WNW 26.5 mph 35.7 mph N/A   Scattered Clouds
9:33 PM 39.2 °F 29.3 °F 32.0 °F 75% 30.16 in 10.0 mi West 20.7 mph 27.6 mph N/A   Mostly Cloudy
9:53 PM 39.2 °F 29.8 °F 30.2 °F 70% 30.16 in 10.0 mi West 18.4 mph 31.1 mph N/A   Mostly Cloudy
10:14 PM 39.2 °F 29.3 °F 30.2 °F 70% 30.16 in 10.0 mi West 20.7 mph 28.8 mph N/A   Mostly Cloudy
10:33 PM 39.2 °F 29.6 °F 30.2 °F 70% 30.16 in 10.0 mi WNW 19.6 mph 33.4 mph N/A   Overcast
10:53 PM 39.2 °F 28.5 °F 30.2 °F 70% 30.16 in 10.0 mi WNW 24.2 mph 32.2 mph N/A   Overcast
11:14 PM 39.2 °F 29.0 °F 28.4 °F 65% 30.16 in 10.0 mi WNW 21.9 mph 31.1 mph N/A   Overcast
11:33 PM 39.2 °F 28.0 °F 28.4 °F 65% 30.16 in 10.0 mi WNW 26.5 mph 33.4 mph N/A   Overcast
11:53 PM 37.4 °F 26.6 °F 28.4 °F 70% 30.16 in 10.0 mi WNW 21.9 mph 33.4 mph N/A   Overcast